Portada
METAR-TAF:

METAR-TAF

Aeroports :

Sheboygan County Memorial Airport

Sheboygan, Wisconsin, Estats Units d'Amèrica

latitud: 43-46-35N, longitud: 087-50-59W, altitud: 228 m

Observació

L'informe es va fer fa 1 hora i 16 minuts, a les 11:53 UTC
Vent 5 kt del Oest/Nord-Oest
Temperatura -5°C
Humitat 86%
Pressió 1016 hPa
Visibilitat: 9.7 km
Cel cobert a una alçada de 900 ft
boirina

METAR: KSBM 111153Z AUTO 30005KT 6SM BR OVC009 M05/M07 A3000 RMK AO2 SLP169 T10501072 11050 21056 53003

Hora: 07:09 (13:09 UTC)


TAF: manca

Observacions i pronòstics meteorològics de més de 4000 aeroports (METAR i TAF).

Les estacions disponibles són els punts grocs i vermells al mapa.

Posi el ratolí al punt desitjat per veure el nom de l'estació.

Feu clic per veure les observacions i els pronòstics meteorològics.

Per canviar el mapa: feu clic els botons verds amb una creu de color negre per apropar; al botó verd amb un guió per allunyar la imatge; o en les fletxes verdes per a mapes adjacents.


METAR-TAF: